Regional Weather Roundup
Issued by NWS Wakefield, VA

Home | Current Version | Previous Version | Graphics & Text | Print | Product List | Glossary On
Versions: 1 2 3 4 5 6 7 8 9 10 11 12 13 14 15 16 17 18 19 20 21 22 23 24 25 26 27
000
ASUS41 KAKQ 052315
RWRAKQ

REGIONAL WEATHER ROUNDUP
NATIONAL WEATHER SERVICE WAKEFIELD VA
700 PM EDT THU MAY 05 2016

Note: "fair" indicates few or no clouds below 12,000 feet with no
significant weather and/or obstructions to visibility. * = Denotes
station may not report precipitation (e.g., rain,snow,etc.),
thunder or fog.

VAZ042-051-052>054-056-060000-
NORTHERN VIRGINIA

CITY           SKY/WX    TMP DP  RH WIND       PRES   REMARKS
WASH NATIONAL  CLOUDY    56  48  74 N13       29.64S
DULLES         LGT RAIN  55  47  74 N12       29.64R
FORT BELVOIR   LGT RAIN  55  46  71 VRB5      29.64R
QUANTICO       CLOUDY    58  48  69 NE15      29.64R
FREDERICKSBRG* CLOUDY    55  54  94 NE3       29.63R
STAFFORD*      CLOUDY    55  47  76 CALM      29.68R
WARRENTON      CLOUDY    56  46  67 NW6       29.64R
CULPEPER*      CLOUDY    56  50  81 N6        29.66R
MANASSAS*      CLOUDY    57  48  72 N10G17    29.64R
LEESBURG*      LGT RAIN  55  52  88 NE7       29.65S
WINCHESTER     CLOUDY    55  46  71 N5        29.65R
FRONT ROYAL*   CLOUDY    54  50  87 CALM      29.64S
LURAY*         CLOUDY    54  52  94 CALM      29.65R
$$

VAZ048-049-060>072-079>083-060000-
CENTRAL AND SOUTH CENTRAL VIRGINIA

CITY           SKY/WX    TMP DP  RH WIND       PRES   REMARKS
RICHMOND       LGT RAIN  51  49  92 NE6       29.63R FOG
CHESTERFIELD*  CLOUDY    52  39  62 NE6       29.65R
PETERSBURG*    LGT RAIN  53  53 100 N8        29.64R
HANOVER        CLOUDY    52  48  86 CALM      29.65R
TAPPAHANNOCK*  CLOUDY    53  51  91 CALM      29.63S
QUINTON*       CLOUDY    51  50  97 N6        29.62S FOG
CHARLOTTSVILLE CLOUDY    54  48  80 N3        29.65R
GORDONSVILLE*  CLOUDY    54  50  86 N6        29.64R
ORANGE*        CLOUDY    54  50  87 CALM      29.66R
LOUISA*        CLOUDY    57  52  82 N3        29.63R
BUMPASS*       CLOUDY    52  50  92 CALM      29.64R
FARMVILLE*     DRIZZLE   53  53 100 N6        29.63R
CREWE*         CLOUDY    51  51 100 N5        29.63R
FORT PICKETT*  NOT AVBL
CHASE CITY*    CLOUDY    52  50  94 N5        29.63R
CLARKSVILLE*   CLOUDY    52  52 100 N7        29.61S
SOUTH HILL*    CLOUDY    51  51  99 N7        29.68R
LAWRENCEVILLE* CLOUDY    51  51  99 NE3       29.62R
EMPORIA*       FLURRIES  50  50 100 N3        29.64R
$$

VAZ088>098-060000-
SOUTHEAST VIRGINIA

CITY           SKY/WX    TMP DP  RH WIND       PRES   REMARKS
NORFOLK        CLOUDY    52  48  86 NE12      29.61R FOG
VIRGINIA BEACH CLOUDY    55  46  71 NE13      29.61R
NORFOLK NAVAL  LGT RAIN  53  50  89 E9        29.63R FOG
WEST POINT*    CLOUDY    52  50  93 CALM      29.64R
SALUDA*        CLOUDY    52  51  97 NW5       29.62R
NEWPORT NEWS   LGT RAIN  52  52 100 NE3       29.62R FOG
LANGLEY AFB    LGT RAIN  52  50  93 N6        29.61R
FORT EUSTIS    LGT RAIN  52  49  89 N3        29.61R
WILLIAMSBURG*  PTSUNNY   54  52  94 CALM      29.63S
HR EXEC AP*    CLOUDY    54  50  87 E8        29.63S
FRANKLIN*      RAIN      52  50  94 N6        29.62R
US460-WAKEFLD  RAIN      51  50  96 CALM      29.62R FOG
$$

VAZ020-022-025-037-045-060000-
WEST CENTRAL AND SOUTHWEST VIRGINIA

CITY           SKY/WX    TMP DP  RH WIND       PRES   REMARKS
STAUNTON*      CLOUDY    54  51  89 N7        29.67R
WAYNESBORO*    CLOUDY    50  48  95 N3        29.66R
HOT SPRINGS VA LGT RAIN  43  43 100 NW6       29.64S VSB<1/4
LYNCHBURG      LGT RAIN  51  49  92 NE6       29.65R
DANVILLE       RAIN      48  47  96 W6        29.64S FOG
SOUTH BOSTON*  CLOUDY    52  51  95 NE3       29.64R
MARTINSVILLE   LGT RAIN  44  43  97 CALM      29.70R
ROANOKE        LGT RAIN  50  44  80 SW3       29.69R
BLACKSBURG     CLOUDY    43  41  92 W7        29.73R
DUBLIN*        LGT RAIN  43  41  92 SW5       29.73S
MARION*        LGT RAIN  42  38  87 W9        29.76R
HILLSVILLE*    RAIN      40  38  93 NW17G23   29.69R
RICHLANDS*     RAIN      40  30  67 NW5       29.77S
WISE*          LGT RAIN  43  41  93 NW6       29.79S
ABINGDON*      RAIN      46  41  85 N6        29.78R
$$

MDZ021>025-VAZ099-100-060000-
SOUTHERN MARYLAND AND THE DELMARVA PENINSULA

CITY           SKY/WX    TMP DP  RH WIND       PRES   REMARKS
PATUXENT RIVER CLOUDY    54  47  77 N12       29.62R
BAY BRIDGE APT NOT AVBL
LEONARDTOWN    CLOUDY    52  46  82 NE5       29.63S
DOVER          PTSUNNY   54  50  89 NE7       29.61F
GEORGETOWN     CLOUDY    51  48  89 N6        29.62S
EASTON         PTSUNNY  N/A N/A N/A NE7       29.67R HAZE
CAMBRIDGE        N/A     52  46  82 NE6       29.62R
SALISBURY      CLOUDY    51  48  89 NE12      29.61S
OCEAN CITY     CLOUDY    50  46  86 NE17G25   29.61R
WALLOPS ISLAND CLOUDY    52  46  80 NE10G21   29.61R
ACCOMACK*      CLOUDY   N/A N/A N/A NE10      29.60R
$$

NCZ012>017-030>032-060000-
NORTH CENTRAL AND EASTERN NORTH CAROLINA

CITY           SKY/WX    TMP DP  RH WIND       PRES   REMARKS
ROANOKE RAPIDS LGT RAIN  52  52 100 NE6       29.60S
RALEIGH        PTSUNNY   51  48  89 NW6       29.63R
ELIZABETH CITY CLOUDY    51  49  92 N14       29.58S
AHOSKIE*       RAIN      52  51  95 N3        29.62R
EDENTON*       LGT RAIN  53  53 100 NE9       29.59R
CURRITUCK*     LGT RAIN  51  50  95 N18G25    29.58F
KILL DEVIL HLS RAIN      51  49  92 N10G23    29.55F
MANTEO         RAIN      51  50  98 NE18      29.58S
CAPE HATTERAS  CLOUDY    54  52  93 N12G18    29.55R
TARBORO*       DRIZZLE   54  53  94 CALM      29.61R
GOLDSBORO      PTSUNNY   58  56  94 N7        29.58S
WASHINGTON     LGT RAIN  53  52  95 N7        29.59F
GREENVILLE     LGT RAIN  54  54 100 CALM      29.63S
NEW BERN       PTSUNNY   56  53  90 N8        29.59R
WILMINGTON     CLOUDY    60  49  66 NW13      29.60R
$$

VAZ048-060000-
ELSEWHERE

CITY           SKY/WX    TMP DP  RH WIND       PRES   REMARKS
HARRISBURG PA  CLOUDY    58  44  60 N6        29.64S
BALTIMORE      CLOUDY    55  47  74 N8        29.64R
ANNAPOLIS      CLOUDY    55  49  80 N6        29.63S
ANDREWS AFB    CLOUDY    53  48  85 N6        29.63R
PHILADELPHIA   CLOUDY    58  44  60 NE12      29.63S
HENDERSON NC   LGT RAIN  52  52 100 CALM      29.61S
GREENSBORO     LGT RAIN  47  45  93 NW15      29.66S FOG
ROCKY MOUNT    CLOUDY    54  51  90 N5        29.60S
$$

VAZ100-060000-
MARINE

STATION/POSITION TIME  TEMP    WIND        PRES    WAVE   SWELL
                       AIR SEA DIR/SP/G            HT/PER HT/PER
                 (UTC) (F)     (DEG/KT/KT) (MB)    (FT/S) (FT/S)
BRANDYWINE LGT   2200           30/ 12/ 16 1002.9F
CAPE MAY NJ      2200      57   20/  3/  7 1002.5F
LEWES DE         2200      55   40/ 14/ 17 1002.9S
15NM E FENWICK I 2250   49 51              1002.0R   8/ 7
OCEAN-CITY-INLET 2200      55   50/  7/ 13 1001.7R
WACHAPREAGUE VA  2200      57   20/ 12/ 18 1001.5R
THOMAS POINT MD  2300   54 58   40/ 11/ 12 1004.5S
GOOSES REEF MD   2300   55 58   30/ 14/ 17 1004.1R   2/ 3
COVE POINT MD    2200           40/ 16/ 19 1003.2R
SOLOMONS ISLAND  2200      60   30/  8/ 10   N/A
BISHOPS HEAD MD  2200      58   10/  8/ 14 1001.9R
PINEY POINT MD   2200           50/  6/  8   N/A
POTOMAC MD       2300   54 59   30/ 12/ 16 1001.7R   1
CAMBRIDGE MD     2200      60   30/  9/ 11 1002.1R
LEWISETTA VA     2200      61   40/  9/ 15 1002.4R
RAPPAHANNOCK LGT 2200           20/ 17/ 19 1002.6R
STINGRAY PT      2300   54 61   40/ 12/ 16 1003.0R   2/ 3
YORK RVR RNG VA  2200           30/ 13/ 15 1001.7R
YORKTOWN VA      2200      63   20/  8/ 10 1002.2R
JAMESTOWN VA     2300   52 67   20/  4/  6   N/A     0
DOMINION TERM VA 2200           20/  7/ 10 1002.4R
KIPTOPEKE VA     2200      61   50/  8/ 16   N/A
CHES BAY BRIDGE  2200      61   30/ 17/ 20 1001.8R
CAPE HENRY VA    2200           30/ 21/ 25   N/A
CHESAPEAKE LGHT  2200   50      20/ 21/ 23 1002.6R
WILLOUBY STN VA  2200           60/ 10/ 12 1003.2R
CAPE HENRY BUOY  2212      55                N/A     7/ 7
CAPE CHARLES BUO 2226      56                N/A     6/ 7   2/11
OFFSHORE WE BUOY 2221      54                N/A     8/ 7   3/11
64NM E OF VA BCH 2250   50 51   20/ 21/ 27  999.2F   7/ 8   3/ 8
DUCK PIER NC     2200      61   20/ 22/ 26 1000.5R
44100 DUCK FRF   2224      55                N/A     8/ 7
44056 DUCK FRF   2211      60                N/A     7/ 7
OREGON INLET NC  2200      61  350/ 11/ 17 1000.5R
HATTERAS NC      2200      68  360/ 23/ 25  999.4R
DIAMOND SHLS NC  2250   57 76  360/ 19/ 23  999.5R   5/ 7   2/13
CAPE LOOKOUT NC  2300   59     350/ 16/ 18 1000.2R
$$




USA.gov is the U.S. government's official web portal to all federal, state and local government web resources and services.